Location: Baix
(44.7118°N, 4.7648°E)
Time: 10:29:30
(UTC+00:00)

Vanguard 2 Rocket - Pass Details

Date: 29 November 2020
Orbit: 554 x 3325 km, 32.9° (Epoch: 21 January)

Event Time Altitude Azimuth Distance (km) Brightness Sun altitude
Rises 10:47:10 0° 266° (W) 7,294 11.4 23.0°
Reaches altitude 10° 10:52:30 10° 262° (W) 6,153 11.2 23.2°
Maximum altitude 11:09:49 49° 196° (SSW) 3,004 10.8 23.5°
Drops below altitude 10° 11:20:55 10° 125° (SE) 4,061 10.8 23.7°
Sets 11:23:41 0° 120° (ESE) 4,734 11.0 23.7°
